星链-2040 (STARLINK-2040 )

导读 | 星芒AI

STARLINK-2040 是星链计划中的一颗先进低轨通信卫星,旨在提升全球互联网覆盖与连接速度。该卫星采用最新一代技术,具备更高的数据传输能力和更强的抗干扰性能,支持更多用户同时在线。作为星链网络的重要组成部分,STARLINK-2040 有助于缩小数字鸿沟,为偏远地区提供稳定、高速的网络服务,推动全球通信技术的发展与普及。

基本信息
目录编号:
47656
目录名称:
STARLINK-2040
国际标识:
2021-012AN
轨道中心:
EARTH
卫星名称:
星链-2040
卫星全名:
星链-2040 (STARLINK-2040 )
卫星状态:
在轨 (已飞行1764 天)
发射日期:
2021-02-16 UTC
国别 :
美国 (US)
星等 :
--
轨道信息
数据来源 国际轨道数据
星历时间: 2025-12-15T23:15:16+0800
1天前
查看轨道信息
半长轴: 6925.29km
偏心率: 0.0001437
轨道倾角: 53.054°
近地点辐角 79.303°
升交点赤经 68.950°
平近点角 280.812°
近地点: 546.159km
远地点: 548.151km
周期: 95.591分钟
每日圈数: 15.064192
详细信息
固有亮度:
5
最大亮度:
2.5
卫星平台:
Starlink V1.0
覆盖范围:
全球
运营商:
太空探索技术公司
运营商所在国:
美国
制造商(研发单位):
太空探索技术公司
制造商所在国:
美国
使用方式:
暂无
卫星简介
星链(Starlink)计划是由太空探索技术公司(SpaceX)提出的一个巨型低轨卫星互联网星座项目,计划在2019年至2024年间在太空搭建由约1.2万颗卫星组成的“星链”网络,其中1584颗将部署在地球上空550千米处的近地轨道,并从2020年开始工作。该卫星仍在工作。
2D轨道图
3D轨道图
轨道高度分析图
轨道倾角分析图
轨道综合分析图
查看轨道综合分析图